Tracking 24122 objects as of 9-Dec-2021
HD Live streaming from Space Station
objects crossing your sky now

GRBALPHA

Track GRBALPHA now!
10-day predictions
GRBALPHA is classified as:


NORAD ID: 47941
Int'l Code: 2021-022K
Perigee: 539.4 km
Apogee: 571.6 km
Inclination: 97.5 °
Period: 95.6 minutes
Semi major axis: 6926 km
RCS: Unknown
Launch date: March 22, 2021
Source: (TBD)
Launch site: TYURATAM MISSILE AND SPACE COMPLEX (TTMTR)

Uplink (MHz):
Downlink (MHz): 435.310
Beacon (MHz):
Mode: 9600bps GMSK
Call sign:
Status: Unknown

aabbcc
Your satellite tracking list
Your tracking list is empty




NASA's NSSDC Master Catalog

Two Line Element Set (TLE):
1 47941U 21022K   21342.74310811  .00000995  00000-0  72082-4 0  9995
2 47941  97.5444 241.2942 0023202  77.8154 282.5697 15.06024637 39280
Source of the keplerian elements: AFSPC